St. Cloud, MN

12:53 PM CDT on July 21, 2019 (GMT -0500)
Saint Cloud Regional

Weather History for KSTC - May, 2019

Change the Weather History Date:

Monday, May 13, 2019

  Actual Average Record
Temperature  
Mean Temperature 50 °F 56 °F  
Max Temperature 66 °F 68 °F 93 °F (2007)
Min Temperature 35 °F 43 °F 24 °F (1953)
Degree Days  
Heating Degree Days 14 10  
Month to date heating degree days 234 152  
Since 1 July heating degree days 9032 8319  
Cooling Degree Days 0 1  
Month to date cooling degree days 0 5  
Year to date cooling degree days 0 7  
Moisture  
Dew Point 36 °F    
Average Humidity 61    
Maximum Humidity 100    
Minimum Humidity 28    
Precipitation  
Precipitation 0.00 in 0.09 in 1.67 in (1942)
Month to date precipitation 1.38 1.23  
Year to date precipitation 8.73 6.59  
Snow  
Snow 0.00 in 0.00 in - ()
Month to date snowfall 0.4 0.0  
Since 1 July snowfall 68.9 45.7  
Snow Depth 0.00 in    
Sea Level Pressure  
Sea Level Pressure 29.95 in    
Wind  
Wind Speed 4 mph ()    
Max Wind Speed 18 mph    
Max Gust Speed 24 mph    
Visibility 9.3 miles    
Events      
T = Trace of Precipitation, MM = Missing Value Source: Averaged Metar Reports

Daily Weather History Graph

Daily Weather History Graph

Search for Another Location

Airport or City:

Astronomy

May. 13, 2019 Rise Set
Actual Time 5:48 AM CDT 8:37 PM CDT
Civil Twilight 5:13 AM CDT 9:12 PM CDT
Nautical Twilight 4:30 AM CDT 9:56 PM CDT
Astronomical Twilight 3:38 AM CDT 10:47 PM CDT
Moon 2:28 PM CDT (5/13) 3:30 AM CDT (5/13)
Length of Visible Light 15h 58m
Length of Day
14h 49m
Waxing Gibbous, 69% of the Moon is Illuminated
May 13
Waxing Gibbous
May 18
Full
May 26
Last Quarter
Jun 3
New
Jun 10
First Quarter

Hourly Weather History & Observations

Time (CDT) Temp. Dew Point Humidity Pressure Visibility Wind Dir Wind Speed Gust Speed Precip Events Conditions
12:53 AM 41.0 °F 37.9 °F 89% 29.94 in 10.0 mi Calm Calm - N/A   Clear
1:53 AM 37.9 °F 37.0 °F 97% 29.94 in 10.0 mi Calm Calm - N/A   Clear
2:53 AM 37.9 °F 36.0 °F 93% 29.94 in 10.0 mi Calm Calm - N/A   Clear
3:53 AM 37.0 °F 36.0 °F 96% 29.95 in 10.0 mi Calm Calm - N/A   Clear
4:53 AM 36.0 °F 35.1 °F 97% 29.96 in 7.0 mi Calm Calm - N/A   Clear
5:43 AM 35.1 °F 35.1 °F 100% 29.93 in 2.5 mi Calm Calm - N/A   Clear
5:51 AM 35.6 °F 35.6 °F 100% 29.93 in 7.0 mi Calm Calm - N/A   Clear
5:53 AM 35.1 °F 35.1 °F 100% 29.97 in 7.0 mi Calm Calm - N/A   Clear
6:53 AM 39.0 °F 37.0 °F 93% 29.98 in 7.0 mi Calm Calm - N/A   Clear
7:53 AM 46.9 °F 42.1 °F 83% 29.99 in 10.0 mi South 3.5 mph - N/A   Clear
8:53 AM 55.0 °F 42.1 °F 62% 29.98 in 10.0 mi SSW 6.9 mph - N/A   Clear
9:53 AM 57.9 °F 37.9 °F 47% 29.98 in 10.0 mi SSW 11.5 mph - N/A   Clear
10:53 AM 61.0 °F 35.1 °F 38% 29.97 in 10.0 mi SW 9.2 mph 18.4 mph N/A   Clear
11:53 AM 63.0 °F 34.0 °F 34% 29.97 in 10.0 mi SSW 12.7 mph 18.4 mph N/A   Partly Cloudy
12:53 PM 64.0 °F 30.9 °F 29% 29.95 in 10.0 mi SSW 10.4 mph 19.6 mph N/A   Mostly Cloudy
1:53 PM 64.0 °F 30.9 °F 29% 29.95 in 10.0 mi SW 12.7 mph 20.7 mph N/A   Scattered Clouds
2:53 PM 64.0 °F 33.1 °F 31% 29.94 in 10.0 mi South 16.1 mph 20.7 mph N/A   Scattered Clouds
3:53 PM 64.0 °F 33.1 °F 31% 29.93 in 10.0 mi South 6.9 mph 18.4 mph N/A   Clear
4:53 PM 66.0 °F 34.0 °F 30% 29.92 in 10.0 mi South 17.3 mph 21.9 mph N/A   Clear
5:53 PM 66.0 °F 34.0 °F 30% 29.92 in 10.0 mi South 13.8 mph - N/A   Clear
6:53 PM 64.9 °F 34.0 °F 32% 29.92 in 10.0 mi South 11.5 mph - N/A   Partly Cloudy
7:53 PM 62.1 °F 35.1 °F 37% 29.91 in 10.0 mi SSE 9.2 mph - N/A   Clear
8:53 PM 57.9 °F 36.0 °F 44% 29.92 in 10.0 mi SE 5.8 mph - N/A   Clear
9:53 PM 55.0 °F 36.0 °F 49% 29.94 in 10.0 mi ESE 3.5 mph - N/A   Clear
10:53 PM 51.1 °F 37.9 °F 61% 29.94 in 10.0 mi SE 4.6 mph - N/A   Clear
11:53 PM 50.0 °F 39.0 °F 66% 29.94 in 10.0 mi SE 3.5 mph - N/A   Clear